#timestamp,LO_Frequency,Hit 
1498374015.5,286046909.7,N
1498374035.4,286046899.6,N
1498374055.2,286046889.7,N
1498374075.0,286046884.7,N
1498374075.9,286046884.7,N
1498374095.8,286046882.8,N
1498374115.6,286046885.9,N
1498374135.4,286046879.7,N
1498374155.3,286046880.2,N
1498374175.1,286046882.8,N
1498374176.0,286046882.8,N
1498374195.8,286046882.5,N
1498374215.7,286046878.4,N
1498374235.5,286046872.1,N
1498374255.3,286046871.0,N
1498374275.2,286046873.6,N
1498374295.9,286046877.3,N
1498374315.7,286046876.0,N
1498374335.5,286046872.7,N
1498374355.4,286046869.7,N
1498374375.2,286046862.4,N
1498374395.0,286046866.5,N
1498374395.9,286046866.5,N
1498374415.8,286046860.2,N
1498374435.6,286046859.9,N
1498374455.4,286046855.0,N
1498374475.3,286046848.5,Y
1498374495.1,286046843.4,Y
1498374515.9,286046838.1,Y
1498374535.7,286046846.2,N
1498374555.5,286046851.5,N
1498374575.3,286046851.4,N
1498374595.2,286046851.3,N
1498374615.0,286046861.7,N
1498374615.9,286046861.7,N
1498374635.7,286046872.9,N
1498374655.6,286046871.8,N
1498374675.4,286046867.1,N
1498374695.2,286046877.7,N
1498374715.1,286046879.6,N
1498374716.0,286046879.6,N
1498374735.8,286046875.3,N
1498374755.6,286046880.1,N
1498374775.5,286046880.0,N
1498374795.3,286046877.8,N
1498374815.1,286046870.9,N
1498374835.8,286046867.0,N
1498374855.7,286046865.2,N
1498374875.5,286046863.8,N
1498374895.3,286046874.7,N
1498374915.2,286046872.1,N
1498374935.0,286046873.7,N
1498374935.9,286046873.7,N
1498374955.7,286046873.5,N
1498374975.6,286046878.2,N
1498374995.4,286046880.7,N
1498375015.2,286046883.3,N
1498375035.1,286046882.0,N
1498375036.0,286046882.0,N
1498375055.8,286046874.4,N
1498375075.6,286046865.5,N
1498375095.5,286046861.3,N
1498375115.3,286046854.2,N
1498375135.1,286046852.0,N
1498375155.9,286046850.3,N
1498375175.7,286046844.5,N
1498375195.5,286046847.1,N
1498375215.4,286046846.6,N
1498375235.2,286046849.2,N
1498375255.0,286046847.9,N
1498375255.9,286046847.9,N
1498375275.8,286046849.1,N
1498375295.6,286046845.0,N
1498375315.4,286046841.6,N
1498375335.2,286046838.4,N
1498375355.1,286046838.1,N
1498375356.0,286046838.1,N
1498375375.8,286046841.4,N
1498375395.6,286046841.4,N
1498375415.5,286046847.8,N
1498375435.3,286046852.8,N
1498375455.1,286046855.9,N
1498375475.9,286046857.3,N
1498375495.7,286046862.0,N
1498375515.5,286046857.5,N
1498375535.4,286046852.5,N
1498375555.2,286046854.4,N
1498375575.0,286046853.8,N
1498375575.9,286046853.8,N
1498375595.7,286046851.7,N
1498375615.6,286046856.7,N
1498375635.4,286046860.3,N
1498375655.2,286046855.5,N
1498375675.1,286046847.8,N
1498375676.0,286046847.8,N
1498375695.8,286046841.9,N
1498375715.6,286046840.4,N
1498375735.5,286046839.1,N
1498375755.3,286046836.7,N
1498375775.1,286046841.6,N
1498375795.9,286046842.0,N
1498375815.7,286046841.7,N
1498375835.5,286046845.0,N
1498375855.4,286046845.4,N
1498375875.2,286046855.0,N
1498375895.0,286046846.1,N
1498375895.9,286046846.1,N
1498375915.7,286046850.4,N
1498375935.6,286046845.1,N
1498375955.4,286046844.8,N
1498375975.2,286046842.9,N
1498375995.1,286046845.1,N
1498375996.0,286046845.1,N
1498376015.8,286046848.1,N
1498376035.6,286046848.4,N
1498376055.5,286046855.6,N
1498376075.3,286046863.1,N
1498376095.1,286046858.6,N
1498376115.9,286046863.3,N
1498376135.7,286046860.5,N
1498376155.5,286046863.2,N
1498376175.4,286046865.6,N
1498376195.2,286046864.1,N
1498376215.0,286046863.8,N
1498376215.9,286046863.8,N
1498376235.8,286046858.9,N
1498376255.6,286046856.1,N
1498376275.4,286046854.1,N
1498376295.2,286046862.9,N
1498376315.1,286046861.1,N
1498376316.0,286046861.1,N
1498376335.8,286046855.2,N
1498376355.6,286046852.4,N
1498376375.5,286046850.2,N
1498376395.3,286046845.3,N
1498376415.1,286046836.1,N
1498376435.9,286046825.5,N
1498376455.7,286046818.5,N
1498376475.5,286046808.5,N
1498376495.4,286046802.8,N
1498376515.2,286046797.9,N
1498376535.0,286046794.8,N
1498376535.9,286046794.8,N
1498376555.8,286046788.9,N
1498376575.6,286046799.4,N
1498376595.4,286046795.0,N
1498376615.2,286046790.0,N
1498376635.1,286046784.5,N
1498376636.0,286046784.5,N
1498376655.8,286046785.8,N
1498376675.6,286046784.9,N
1498376695.5,286046780.9,N
1498376715.3,286046778.4,N
1498376735.1,286046777.1,N
1498376755.9,286046773.4,N
1498376775.7,286046774.3,N
1498376795.5,286046778.4,N
1498376815.4,286046782.0,N
1498376835.2,286046780.3,N
1498376855.0,286046778.4,N
1498376855.9,286046778.4,N
1498376875.8,286046780.0,N
1498376895.6,286046781.7,N
1498376915.4,286046780.7,N
1498376935.2,286046783.4,N
1498376955.1,286046782.6,N
1498376956.0,286046782.6,N
1498376975.8,286046782.1,N
1498376995.6,286046784.9,N
1498377015.5,286046784.0,N
1498377035.3,286046784.4,N
1498377055.1,286046784.0,N
1498377075.9,286046783.8,N
1498377095.7,286046786.8,N
1498377115.5,286046786.1,N
1498377135.4,286046786.7,N
1498377155.2,286046781.9,N
1498377175.0,286046779.1,N
1498377175.9,286046779.1,N
1498377195.8,286046779.0,N
1498377215.6,286046781.1,N
1498377235.4,286046781.5,N
1498377255.2,286046779.3,N
1498377275.1,286046781.1,N
1498377276.0,286046781.1,N
1498377295.8,286046785.0,N
1498377315.6,286046783.6,N
1498377335.5,286046783.9,N
1498377355.3,286046782.7,N
1498377375.1,286046782.3,N
1498377395.9,286046789.2,N
1498377415.7,286046794.1,N
1498377435.5,286046792.8,N
1498377455.4,286046790.9,N
1498377475.2,286046790.2,N
1498377495.0,286046790.7,N
1498377495.9,286046790.7,N
1498377515.8,286046791.5,N
1498377535.6,286046783.9,N
1498377555.4,286046779.0,N
1498377575.3,286046772.7,N
1498377595.1,286046775.5,N
1498377596.0,286046775.5,N
